Location: Devargunta
(16.7631°N, 80.9077°E)
Time: 15:17:36
(UTC+00:00)

SJ 16-02 - Pass Details

Date: 19 January 2021
Orbit: 607 x 615 km, 75.0° (Epoch: 26 February)

Event Time Altitude Azimuth Distance (km) Brightness Sun altitude
Rises 13:35:05 0° 222° (SW) 2,869 5.8 -16.6°
Reaches altitude 10° 13:37:50 10° 239° (WSW) 1,964 5.1 -17.2°
Maximum altitude 13:41:01 20° 286° (WNW) 1,435 3.9 -18.0°
Drops below altitude 10° 13:44:14 10° 333° (NNW) 1,963 4.0 -18.7°
Sets 13:46:59 0° 351° (N) 2,866 4.7 -19.4°
